Location: Sternwarte ZA, Rosenfeld-Brittheim
(48.2889°N, 8.6789°E)
Time: 08:28:57
(UTC+02:00)

ISS - Pass Details

Date: 24 May 2021
Orbit: 417 x 422 km, 51.6° (Epoch: 18 June)

Event Time Altitude Azimuth Distance (km) Brightness Sun altitude
Rises 22:58:24 0° 290° (WNW) 2,368 1.0 -13.7°
Reaches altitude 10° 23:00:31 10° 293° (WNW) 1,504 0.0 -13.9°
Maximum altitude 23:03:52 63° 16° (NNE) 475 -3.4 -14.2°
Enters shadow 23:06:20 17° 95° (E) 1,153 -1.9 -14.4°
